Home   Weather   Valencia   Past weeks
Flag for Venezuela

Past Weather in Valencia, Venezuela — Yesterday and Last 2 Weeks

Now
79 °F

Warm.


Feels Like: 80 °F
Forecast: 90 / 68 °F
Wind: 7 mph from North

Location: Valencia Airport

Current Time: Jan 29, 2020 at 12:58:47 am

Latest Report: Jan 29, 2020 at 12:02 am


Visibility: N/A

Pressure: 29.95 "Hg

Humidity: 58%

Dew Point: 63 °F

Location of ValenciaLocation

Past Weather in Valencia — Graph

°F

Valencia Temperature Yesterday

Maximum temperature yesterday: 95 °F (at 4:02 pm)
Minimum temperature yesterday: 75 °F (at 5:02 am)
Average temperature yesterday: 83 °F

High & Low Weather Summary for the Past Weeks

 TemperatureHumidityPressure
High95 °F (Jan 28, 4:02 pm)94% (Jan 16, 6:00 am)30.09 "Hg (Jan 16, 6:00 am)
Low68 °F (Jan 26, 7:00 am)26% (Jan 25, 3:02 pm)29.80 "Hg (Jan 22, 6:00 pm)
Average82 °F59%29.95 "Hg
* Reported Jan 14 8:00 am — Jan 29 12:02 am, Valencia. Weather by CustomWeather, © 2020

Note: Actual official high and low records may vary slightly from our data, if they occured in-between our weather recording intervals... More about our weather records

Valencia Weather History for the Previous 24 Hours

Scroll right to see more
 ConditionsComfort  
Time TempWeatherWind HumidityBarometerVisibility
12:02 am
Wed, Jan 29
79 °FWarm.7 mph58%29.95 "HgN/A
11:02 pm
Tue, Jan 28
79 °FWarm.8 mph58%29.92 "HgN/A
10:02 pm81 °FWarm.6 mph54%29.89 "HgN/A
9:02 pm81 °FWarm.8 mph54%29.86 "HgN/A
9:00 pm77 °FClear.N/A83%29.89 "Hg10 mi
8:02 pm82 °FWarm.5 mph51%29.86 "HgN/A
8:00 pm81 °FClear.N/A74%29.89 "Hg10 mi
7:02 pm88 °FWarm.7 mph40%29.86 "HgN/A
6:02 pm91 °FHot.8 mph36%29.83 "HgN/A
5:02 pm93 °FExtremely hot.7 mph30%29.83 "HgN/A
4:02 pm95 °FExtremely hot.7 mph28%29.86 "HgN/A
3:02 pm93 °FExtremely hot.6 mph30%29.89 "HgN/A
2:02 pm91 °FHot.6 mph34%29.92 "HgN/A
2:00 pm91 °FScattered clouds.N/A46%29.89 "HgN/A
1:02 pm90 °FHot.6 mph36%29.98 "HgN/A
12:02 pm86 °FWarm.3 mph46%30.01 "HgN/A
11:02 am84 °FWarm.3 mph51%30.01 "HgN/A
10:02 am81 °FWarm.7 mph58%30.01 "HgN/A
9:02 am77 °FWarm.5 mph74%29.98 "HgN/A
9:00 am77 °FSunny.N/A74%29.98 "Hg10 mi
8:02 am75 °FMild.6 mph74%29.95 "HgN/A
7:02 am77 °FWarm.5 mph69%29.95 "HgN/A
6:02 am75 °FMild.5 mph69%29.92 "HgN/A
5:02 am75 °FMild.5 mph69%29.92 "HgN/A
4:02 am77 °FWarm.6 mph65%29.95 "HgN/A
3:02 am79 °FWarm.5 mph61%29.95 "HgN/A
2:02 am79 °FWarm.6 mph61%29.95 "HgN/A
1:02 am79 °FWarm.3 mph58%29.95 "HgN/A
12:02 am79 °FWarm.3 mph61%29.95 "HgN/A
Weather by CustomWeather, © 2020

See weather overview

Advertising